Alexandria, Egypt

5:57 AM EET on August 27, 2016 (GMT +0200)
Alexandria International

Weather History for HEAX - July, 2014

Change the Weather History Date:

Sunday, July 6, 2014

  Actual Average Record
Temperature  
Mean Temperature 80 °F -  
Max Temperature 84 °F 84 °F 95 °F (1997)
Min Temperature 75 °F 73 °F 73 °F (1996)
Cooling Degree Days 14    
Growing Degree Days 30 (Base 50)    
Moisture  
Dew Point 71 °F    
Average Humidity 76    
Maximum Humidity 89    
Minimum Humidity 58    
Precipitation  
Precipitation 0.00 in 0.00 in - ()
Sea Level Pressure  
Sea Level Pressure 29.81 in    
Wind  
Wind Speed 9 mph ()    
Max Wind Speed 13 mph    
Max Gust Speed -    
Visibility 6.1 miles    
Events      
Averages and records for this station are not official NWS values.
T = Trace of Precipitation, MM = Missing Value Source: Averaged Metar Reports

Daily Weather History Graph

Daily Weather History Graph

Search for Another Location

Airport or City:

Trip Planner

Search our weather history database for the weather conditions in past years. The results will help you decide how hot, cold, wet, or windy it might be!

Date:

Astronomy

Jul. 06, 2014 Rise Set
Actual Time 5:01 AM EET 7:07 PM EET
Civil Twilight 4:34 AM EET 7:35 PM EET
Nautical Twilight 4:00 AM EET 8:09 PM EET
Astronomical Twilight 3:24 AM EET 8:45 PM EET
Moon 1:02 PM EET (7/6) No Moon Set
Length of Visible Light 15h 01m
Length of Day
14h 05m
First Quarter, 59% of the Moon is Illuminated
Jul 6
First Quarter
Jul 12
Full
Jul 19
Last Quarter
Jul 27
New
Aug 4
First Quarter

Hourly Weather History & Observations

Time (EET) Temp. Heat Index Dew Point Humidity Pressure Visibility Wind Dir Wind Speed Gust Speed Precip Events Conditions
12:00 AM 77.0 °F - 69.8 °F 78% 29.74 in 6.2 mi WNW 11.5 mph - N/A   Scattered Clouds
1:00 AM 77.0 °F - 69.8 °F 78% 29.74 in 6.2 mi WNW 11.5 mph - N/A   Scattered Clouds
2:00 AM 76 °F - 70 °F 76% 29.74 in 6 mi WNW 11.5 mph - -   Partly Cloudy
2:00 AM 77.0 °F - 69.8 °F 78% 29.74 in 6.2 mi WNW 11.5 mph - N/A   Scattered Clouds
3:00 AM 77.0 °F - 69.8 °F 78% 29.74 in 6.2 mi WNW 9.2 mph - N/A   Scattered Clouds
4:00 AM 77.0 °F - 69.8 °F 78% 29.74 in 6.2 mi NW 9.2 mph - N/A   Scattered Clouds
5:00 AM 76 °F - 71 °F 79% 29.74 in 6 mi WNW 9.2 mph - -   Partly Cloudy
5:00 AM 75.2 °F - 71.6 °F 89% 29.74 in 6.2 mi WNW 9.2 mph - N/A   Scattered Clouds
6:00 AM 77.0 °F - 71.6 °F 83% 29.74 in 6.2 mi NW 10.4 mph - N/A   Scattered Clouds
7:00 AM 77.0 °F - 71.6 °F 83% 29.77 in 6.2 mi NW 9.2 mph - N/A   Scattered Clouds
8:00 AM 79 °F - 71 °F 69% 29.80 in 6 mi WNW 10.4 mph - -   Partly Cloudy
8:00 AM 78.8 °F - 69.8 °F 74% 29.80 in 6.2 mi WNW 10.4 mph - N/A   Scattered Clouds
9:00 AM 80.6 °F 84.6 °F 71.6 °F 74% 29.80 in 6.2 mi WNW 10.4 mph - N/A   Scattered Clouds
11:00 AM 82 °F - 71 °F 63% 29.83 in 6 mi NW 9.2 mph - -   Partly Cloudy
11:00 AM 82.4 °F 87.2 °F 71.6 °F 70% 29.83 in 6.2 mi NW 9.2 mph - N/A   Scattered Clouds
12:00 PM 82.4 °F 87.2 °F 71.6 °F 70% 29.83 in 6.2 mi NW 10.4 mph - N/A   Scattered Clouds
1:00 PM 82.4 °F 87.2 °F 71.6 °F 70% 29.83 in 6.2 mi NNW 10.4 mph - N/A   Scattered Clouds
2:00 PM 84 °F - 72 °F 58% 29.83 in 6 mi NW 6.9 mph - -  
2:00 PM 84.2 °F 89.6 °F 71.6 °F 66% 29.83 in 6.2 mi NW 9.2 mph - N/A   Scattered Clouds
3:00 PM 84.2 °F 89.6 °F 71.6 °F 66% 29.83 in 6.2 mi NNW 12.7 mph - N/A   Scattered Clouds
4:00 PM 82.4 °F 88.2 °F 73.4 °F 74% 29.83 in 6.2 mi NW 11.5 mph - N/A   Scattered Clouds
5:00 PM 82 °F - 73 °F 68% 29.83 in 6 mi NNW 11.5 mph - -   Partly Cloudy
5:00 PM 82.4 °F 88.2 °F 73.4 °F 74% 29.83 in 6.2 mi NNW 11.5 mph - N/A   Scattered Clouds
6:00 PM 80.6 °F 84.6 °F 71.6 °F 74% 29.83 in 6.2 mi North 8.1 mph - N/A   Scattered Clouds
7:00 PM 78.8 °F - 73.4 °F 83% 29.83 in 6.2 mi NW 9.2 mph - N/A   Scattered Clouds
8:00 PM 77 °F - 73 °F 83% 29.86 in 6 mi NNW 6.9 mph - -   Partly Cloudy
8:00 PM 77.0 °F - 73.4 °F 89% 29.86 in 6.2 mi NNW 6.9 mph - N/A   Scattered Clouds
9:00 PM 77.0 °F - 71.6 °F 83% 29.86 in 6.2 mi NW 9.2 mph - N/A   Scattered Clouds
10:00 PM 77.0 °F - 71.6 °F 83% 29.86 in 6.2 mi NW 6.9 mph - N/A   Scattered Clouds
11:00 PM 76 °F - 72 °F 86% 29.87 in 6 mi NNW 5.8 mph - -   Scattered Clouds
11:00 PM 75.2 °F - 71.6 °F 89% 29.86 in 6.2 mi NNW 5.8 mph - N/A   Partly Cloudy